Wind_Speed
30 27 25 23 22 20 18 17 17 16 14 12 10 9 9 8 7 6 4 2 0 2 4 6 8 9 9 11 12 14 15 15 15 15 15 15 14 14 13 12 12 11
31 28 26 25 24 23 21 18 17 17 16 14 11 10 11 9 8 6 5 4 3 2 2 4 6 8 9 10 11 13 15 14 14 14 15 15 15 15 15 14 14 14
32 30 29 27 26 25 23 21 19 18 17 15 14 13 12 12 10 8 7 6 5 3 1 2 5 6 8 9 10 12 14 14 13 14 13 13 13 14 14 14 15 15
34 33 31 30 28 26 24 22 22 21 19 18 16 15 14 13 12 10 10 9 7 5 3 1 3 4 6 7 9 10 12 12 12 13 13 13 13 13 13 14 14 14
35 35 33 31 29 28 26 25 24 23 22 20 18 16 15 14 13 12 11 11 9 7 4 2 1 2 4 6 7 8 10 10 11 12 13 14 14 14 14 14 14 14
32 33 33 33 32 30 28 27 25 25 23 22 20 18 16 15 13 13 12 11 9 7 5 3 1 1 3 5 6 7 8 9 10 12 13 14 15 16 16 16 16 15
31 32 33 33 33 32 30 28 27 26 25 23 22 20 17 16 14 13 12 11 9 7 6 4 2 1 2 4 5 6 7 9 10 11 12 13 14 15 15 16 16 16
32 32 33 34 34 33 32 31 29 27 26 24 23 22 19 17 16 14 13 12 10 8 6 5 4 3 3 5 6 6 7 9 11 12 13 14 15 15 15 14 14 14
33 33 33 34 35 34 33 32 31 29 26 25 24 23 21 19 17 16 15 13 11 8 7 6 5 5 5 6 6 6 8 9 11 13 14 15 16 16 16 15 14 13
38 37 35 36 36 37 36 34 33 30 27 26 25 24 22 21 19 18 16 14 12 10 8 7 6 6 6 6 6 7 8 10 11 13 14 15 16 16 17 16 16 15
40 37 36 37 39 38 37 36 35 32 29 27 26 25 23 22 21 19 17 15 13 11 9 8 7 7 6 6 6 7 8 9 11 12 14 15 16 17 17 17 16 16
39 37 36 38 39 40 39 38 36 33 30 28 27 26 25 24 22 20 18 16 13 11 9 9 8 7 5 5 5 6 7 9 10 12 13 15 16 17 17 17 17 16
38 39 38 38 39 39 38 36 35 33 31 30 29 28 27 26 23 21 18 15 13 11 10 8 6 4 3 4 5 6 7 9 11 13 14 15 16 16 16 17 17 17
34 37 37 37 35 33 31 31 31 32 31 30 30 30 29 27 25 22 18 15 13 11 10 7 5 4 3 4 5 7 9 11 13 14 15 16 16 17 17 17 18 18
31 33 34 34 33 31 31 32 32 32 31 31 31 31 29 27 24 22 19 17 14 12 10 8 7 5 4 4 6 9 12 14 15 16 17 18 19 19 20 20 20 21
29 30 32 33 33 33 35 36 36 35 34 34 33 31 28 25 23 21 19 18 16 14 11 10 8 5 3 5 8 10 12 13 14 16 17 18 20 21 22 22 23 23
27 28 30 31 32 32 35 37 36 35 34 33 32 29 26 24 22 20 19 17 15 14 12 10 7 4 3 5 7 9 10 11 12 14 16 17 19 20 22 24 24 25
25 26 28 29 31 33 34 35 35 34 32 31 31 29 27 24 22 21 18 16 14 13 11 9 6 3 3 3 7 9 10 11 12 14 15 17 19 21 23 24 25 26
24 25 27 29 31 33 34 34 35 36 36 34 32 30 28 26 23 20 18 16 15 13 10 8 5 4 2 3 7 9 10 11 13 15 16 19 20 22 24 25 26 27
23 25 26 28 29 30 30 31 31 32 33 33 31 30 28 26 24 21 19 17 14 12 10 7 6 5 4 6 8 10 11 13 14 16 18 20 22 24 25 25 26 27
22 23 24 25 27 27 27 27 28 29 30 30 28 27 25 24 23 21 19 17 14 11 9 7 6 6 6 8 9 11 12 14 16 17 19 21 24 25 25 25 26 26
21 22 23 25 26 28 28 29 31 32 31 29 28 27 25 23 22 20 18 16 14 11 8 6 6 7 8 9 10 12 13 15 17 19 20 22 24 26 26 26 26 26
22 22 23 25 26 28 29 32 36 36 33 30 29 28 26 23 21 18 16 15 12 10 8 7 8 9 9 10 12 13 14 15 18 19 20 23 25 26 26 26 25 26
22 23 24 25 26 28 30 33 36 35 33 30 29 27 24 22 19 16 13 11 11 10 9 9 10 11 11 12 13 13 14 16 18 20 22 24 26 26 26 26 26 26
23 24 25 25 27 30 33 34 34 33 31 28 25 23 21 18 14 11 10 12 13 12 11 11 13 12 12 14 14 15 15 16 19 21 23 25 26 26 26 26 26 26
23 25 26 26 28 31 34 34 31 28 26 23 21 19 16 12 10 10 13 15 14 13 13 14 14 14 14 15 16 16 17 18 19 22 24 25 26 26 26 26 26 26
Wind_Direction
215 217 219 219 219 218 212 205 201 198 195 193 192 184 173 170 170 172 177 183 312 11 30 30 25 28 28 25 23 21 22 26 30 32 31 31 30 26 22 18 12 5
215 219 221 221 221 221 218 213 210 206 202 197 195 188 182 182 183 185 197 214 242 300 8 14 15 21 22 21 20 17 19 23 25 25 25 23 21 18 15 12 7 3
216 219 221 222 223 223 220 217 217 215 210 204 199 193 190 192 194 196 205 217 230 240 270 351 6 15 16 14 11 10 14 17 18 16 15 15 11 8 6 1 358 357
217 220 222 224 225 226 223 219 219 218 214 210 205 201 198 197 198 202 207 214 220 219 218 290 2 13 14 9 4 5 9 12 10 7 6 6 4 1 359 354 351 349
221 222 223 225 226 226 225 223 222 220 217 215 211 207 205 203 203 206 208 212 213 207 200 193 19 15 13 7 1 2 6 9 7 4 3 1 359 357 355 353 350 348
227 226 226 227 227 227 226 226 225 223 220 217 214 212 210 209 210 211 212 213 208 199 191 185 192 354 5 357 351 354 1 7 6 4 4 0 356 353 351 350 348 347
233 231 230 230 229 228 228 228 227 226 223 219 216 213 212 212 213 214 215 213 206 200 200 206 232 278 335 333 330 341 353 359 1 2 2 360 354 350 347 344 342 341
235 236 233 232 231 230 228 228 228 227 223 220 216 213 212 213 214 214 213 211 207 209 218 232 248 266 294 306 313 326 343 351 355 357 356 355 352 349 345 339 335 333
235 239 238 234 231 230 228 227 228 227 224 220 215 211 209 210 213 213 211 210 213 221 235 248 256 267 282 293 303 318 334 344 349 349 348 347 346 345 343 337 330 327
233 233 234 234 232 230 227 226 226 225 223 219 214 210 207 206 207 208 208 209 216 229 241 251 259 266 275 287 299 315 331 339 342 342 339 339 339 340 339 335 329 323
232 230 230 231 231 229 226 223 223 221 218 214 210 207 205 203 202 202 204 207 213 226 237 246 254 262 272 290 307 319 329 334 335 333 331 332 332 332 333 331 327 321
231 231 230 230 229 229 226 221 219 216 212 209 207 204 201 200 199 199 201 203 207 216 226 234 243 258 279 298 310 318 326 328 326 324 323 323 323 323 323 322 321 317
228 231 232 231 229 227 223 217 214 211 207 204 202 200 197 195 196 196 197 199 202 204 209 218 228 244 273 289 299 310 317 317 314 314 313 312 312 312 312 312 311 310
231 231 231 230 227 223 217 214 213 209 204 200 197 196 195 194 192 191 191 192 193 192 191 191 194 203 228 259 288 304 309 308 308 307 306 305 304 304 303 303 302 301
235 232 230 228 225 219 215 215 213 208 202 197 194 193 193 190 189 188 187 184 181 178 175 173 178 190 214 264 295 306 309 309 308 306 304 303 302 301 299 298 296 295
239 234 230 227 224 218 214 213 210 205 200 194 191 189 187 184 184 185 185 181 175 170 167 167 174 190 237 294 313 322 322 319 314 309 306 304 303 302 300 298 296 294
242 235 229 224 219 215 212 209 204 198 193 188 185 183 181 180 180 178 176 175 171 165 163 166 175 204 272 315 339 351 348 338 329 322 317 313 310 308 306 304 302 299
246 236 226 219 215 213 210 205 197 190 186 185 183 179 177 175 175 173 170 168 166 163 164 171 188 228 273 335 359 7 4 353 346 339 332 327 322 317 313 311 308 306
247 236 226 218 216 214 208 201 193 187 185 184 181 177 174 171 171 173 170 168 167 167 173 188 210 228 254 331 344 353 358 354 349 344 338 335 331 325 320 316 312 309
248 235 226 218 213 209 202 194 187 181 179 179 177 173 170 168 169 171 169 170 175 179 188 204 216 225 260 308 323 333 343 345 344 342 338 335 333 329 324 319 314 310
249 233 222 212 205 201 194 186 179 174 173 174 174 173 172 170 170 170 172 176 183 188 194 205 217 234 267 297 312 322 330 336 339 338 336 334 332 330 326 321 316 311
248 231 216 205 199 195 189 180 176 175 176 176 176 175 174 173 172 174 180 184 188 193 197 207 227 246 270 295 309 316 322 329 335 335 332 331 329 329 326 321 317 311
245 226 211 202 197 192 184 178 176 175 176 176 176 174 172 172 176 180 186 190 194 202 209 223 242 253 273 294 304 311 317 326 332 331 329 327 327 327 324 320 316 311
240 223 209 201 195 187 181 176 174 173 174 176 176 173 170 171 176 179 186 201 214 221 230 246 253 258 275 291 298 304 312 324 330 328 326 325 324 323 321 318 314 310
238 222 211 200 190 184 180 176 171 170 170 171 173 172 168 168 175 185 204 217 224 233 245 254 256 262 277 288 294 299 308 322 328 325 322 322 321 318 316 313 310 306
236 220 209 199 189 182 175 169 164 163 163 164 168 169 166 169 184 202 216 220 226 240 251 254 257 266 279 288 293 298 306 319 325 323 320 319 317 314 311 309 305 302
Height
804 806 807 808 809 809 810 811 812 813 815 816 817 818 819 820 821 822 823 824 824 824 825 825 826 826 826 826 827 827 827 827 828 828 828 828 828 828 828 828 828 828
802 804 806 807 808 808 809 810 811 812 813 815 816 817 818 819 820 821 822 823 823 824 824 825 825 825 826 826 827 827 827 828 828 828 828 828 828 828 828 828 828 828
800 802 803 804 805 807 808 809 810 811 812 814 814 816 817 818 819 820 821 822 823 824 824 825 825 825 825 826 826 827 827 827 828 828 829 829 829 829 829 829 829 828
797 799 800 802 803 804 806 807 808 809 811 812 813 814 815 816 818 818 820 821 821 823 823 824 824 825 825 825 826 826 827 827 827 827 828 828 829 829 829 829 829 828
796 797 798 800 801 802 804 805 806 807 809 811 813 814 815 816 817 817 818 819 820 821 822 823 823 824 824 825 825 826 826 827 827 827 827 827 827 827 827 828 828 828
798 798 799 799 800 801 802 803 804 805 807 809 811 813 814 815 816 817 818 818 819 820 821 821 822 822 823 824 824 825 825 826 826 826 826 826 826 826 826 826 826 826
796 798 798 799 799 799 800 801 802 803 805 807 809 811 812 813 815 816 817 818 819 819 820 820 820 821 821 822 823 823 824 824 824 825 825 825 825 825 825 824 824 824
794 795 796 797 797 798 798 799 800 802 803 805 807 808 810 811 813 814 815 817 817 818 819 819 819 820 820 820 821 822 822 822 822 822 823 823 823 823 823 823 823 822
790 792 794 795 795 795 796 797 798 799 801 803 804 806 808 809 811 812 814 815 816 817 817 818 818 818 818 819 819 820 820 820 821 821 820 820 820 820 820 821 821 821
784 785 788 790 790 791 792 794 795 797 798 800 802 804 806 807 809 810 812 813 815 816 816 817 817 818 818 818 818 819 819 819 819 819 819 819 818 818 818 818 818 818
780 780 781 783 785 786 787 789 791 793 795 797 799 802 804 805 807 808 810 811 813 814 815 816 816 817 817 818 818 818 818 818 818 818 818 817 817 817 816 816 816 815
777 777 778 778 780 781 782 784 786 788 791 793 796 798 800 803 805 807 808 809 811 812 814 815 816 817 817 817 818 817 817 817 816 816 816 816 816 816 815 814 814 813
773 774 775 776 777 779 780 782 784 785 787 790 792 794 797 799 802 805 807 808 809 811 812 814 815 816 816 817 817 817 816 816 815 815 815 814 814 814 813 813 812 811
771 772 773 774 776 778 781 784 786 786 786 787 789 791 793 795 798 801 804 806 808 809 810 812 813 815 815 816 816 816 816 815 814 814 813 812 812 811 811 811 810 809
769 770 771 773 774 775 778 781 784 785 785 785 787 789 791 793 796 799 801 804 806 807 809 810 812 813 814 815 815 815 815 814 813 812 811 810 810 809 808 808 807 806
768 768 769 770 771 773 775 776 778 781 782 782 785 788 790 793 795 797 800 802 804 805 807 809 810 812 813 814 814 814 813 813 812 811 810 809 807 806 805 805 804 803
766 766 767 768 769 771 773 774 775 777 779 782 784 787 790 792 795 797 799 801 803 804 805 807 809 810 812 813 813 813 812 811 810 809 808 807 806 804 803 801 801 800
764 764 765 765 766 768 769 771 773 775 779 783 784 786 788 791 795 797 799 801 802 803 805 806 807 808 810 811 811 811 810 809 809 808 807 806 804 802 801 799 798 797
762 762 763 763 764 765 767 770 771 772 775 779 782 783 784 787 792 795 798 799 801 802 803 804 805 807 808 809 809 809 808 807 806 806 805 804 803 801 799 797 796 794
761 761 761 762 764 766 767 769 771 772 774 777 781 783 783 785 789 793 796 797 798 800 801 802 804 805 806 807 807 806 806 805 804 803 802 802 801 799 797 795 794 792
759 759 760 762 763 765 766 768 770 773 776 778 781 783 784 785 788 791 794 796 797 797 798 800 802 803 803 804 804 804 803 802 801 800 800 799 798 797 795 793 792 790
757 758 759 760 761 762 764 766 768 771 774 777 779 781 783 785 787 790 792 794 795 795 796 798 799 800 801 801 801 801 800 799 799 798 797 796 795 794 793 791 789 788
755 756 757 758 759 760 762 763 765 768 771 775 778 780 782 784 787 790 791 793 795 794 795 796 797 798 798 798 798 798 797 797 796 795 794 793 791 790 789 788 787 785
753 754 755 756 757 759 761 762 764 765 769 773 777 779 780 783 786 789 791 793 795 795 795 795 796 796 796 796 796 796 795 794 793 792 791 789 787 786 785 784 783 782
751 752 753 754 755 757 759 761 763 765 768 772 776 778 780 782 785 787 790 793 794 795 794 794 794 795 794 794 794 794 793 792 790 789 787 785 784 782 781 780 779 778
748 749 750 752 753 755 757 759 762 765 768 771 774 777 779 781 784 787 790 792 793 793 793 793 793 793 793 793 792 791 791 789 788 786 783 782 780 779 778 777 775 774